User: anonymous   Login
Location: Mainz-Finthen
(49.9906°N, 8.1713°E)
Time: 03:29:09
(UTC+00:00)
Language:

AIST 2D - Orbit

View from above orbital plane
View from above orbital plane
View from above satellite
View from above satellite

Ground track
Ground track

The orbit data is extracted from the following two-line orbital elements,

1 41465U 16026B   21339.83721245  .00005133  00000-0  14130-3 0  9999
2 41465  97.0817 217.9288 0012190 110.0941 318.2570 15.37515324313751
Epoch (UTC): 05 December 2021 20:05:35
Eccentricity: 0.0012190
inclination: 97.0817°
perigee height: 445 km
apogee height: 462 km
right ascension of ascending node: 217.9288°
argument of perigee: 110.0941°
revolutions per day: 15.37515324
mean anomaly at epoch: 318.2570°
orbit number at epoch: 31375

The dashed part of the orbit path shows where the satellite is in the earth's shadow,  

DLR